Location: *
(33.2959°S, 83.6018°E)
Time: 20:00:59
(UTC+00:00)

Daily predictions for brighter satellites

Satellite Brightness Start Highest point End
(mag) Time Altitude Azimuth Time Altitude Azimuth Time Altitude Azimuth
USA 229 DEB 4.3 12:22:41 10° S 12:28:15 29° SE 12:33:26 10° ENE
USA 229 4.4 12:22:50 10° S 12:28:23 29° SE 12:33:34 10° ENE
FALCON 9 R/B 2.8 12:29:31 10° WNW 12:31:24 18° NNW 12:33:06 10° NNE
Helios 1B rocket 2.9 12:28:31 10° SSE 12:32:09 34° E 12:35:44 10° NNE
Cosmos 1315 Rocket 4.4 12:32:04 10° NE 12:34:26 15° E 12:36:49 10° SE
ASTRO E2 2.7 12:30:55 10° WNW 12:34:28 58° N 12:37:59 10° E
Meteor 1-31 Rocket 3.3 12:32:59 10° SSE 12:36:24 33° E 12:39:47 10° NNE
ATLAS 5 CENTAUR R/B 3.3 12:32:20 10° SW 12:37:06 38° WNW 12:40:59 10° N
Meteor 1-16 Rocket 4.4 12:34:18 10° S 12:40:13 58° E 12:46:01 10° NNE
SeaSat 1 2.5 12:36:33 10° SSE 12:41:27 59° ENE 12:46:17 10° NNW
Cosmos 1400 Rocket 3.5 12:37:38 10° NNW 12:41:35 60° W 12:45:34 10° S
Okean 2 3.2 12:39:16 10° N 12:43:15 76° E 12:47:18 10° S
CZ-2C R/B 2.5 12:43:39 10° SSE 12:47:14 65° E 12:50:48 10° N
Cosmos 482 Debris 4.3 12:53:22 10° WNW 12:54:57 26° SW 12:56:31 11° SSE
SEDSat Delta rocket 3.1 12:53:29 10° WNW 12:57:28 53° NNE 13:00:18 18° E
ISS -3.2 12:55:02 10° NNW 12:58:15 42° NE 13:00:16 20° ESE
Cosmos 1782 Rocket 4.3 12:55:01 10° SSE 12:58:50 29° ESE 13:02:37 10° NE
SMAP 3.7 12:56:33 10° S 13:01:12 60° WSW 13:05:48 10° NNW
Cosmos 2285 Rocket 4.0 12:55:40 10° N 13:02:04 81° ENE 13:08:35 10° SSE
Cosmos 1346 Rocket 2.9 12:58:19 10° S 13:02:10 48° E 13:05:56 10° NNE
Cosmos 1908 Rocket 3.4 13:01:20 10° S 13:05:46 76° E 13:10:06 10° N
ATLAS 3B R/B 3.4 13:00:18 10° SW 13:06:21 51° WNW 13:12:32 10° N
Cosmos 1992 Rocket 4.1 13:14:24 10° SSW 13:19:39 76° WNW 13:24:49 10° N
USA 305 3.3 13:17:23 10° NNW 13:18:56 22° NNE 13:18:56 22° NNE
Delta 2 Rocket 3.3 13:17:48 10° W 13:21:32 65° S 13:23:05 34° ESE
CZ-4B R/B 3.9 13:20:04 10° SSE 13:25:03 40° E 13:29:55 10° NNE
Cosmos 1140 Rocket 3.4 13:20:43 10° NNW 13:25:53 87° ENE 13:31:06 10° SSE
USA 307 3.4 13:23:13 10° NNW 13:25:03 25° NNE 13:25:03 25° NNE
Cosmos 1300 Rocket 3.7 13:22:02 10° S 13:26:15 47° E 13:29:11 18° NNE
IGS 5A 3.4 13:22:20 10° SSE 13:26:26 58° E 13:30:28 10° N
Cosmos 2242 Rocket 3.5 13:23:30 10° N 13:27:59 72° E 13:32:34 10° S
Cosmos 1174 3.4 13:26:51 10° NNW 13:30:04 66° WSW 13:31:11 34° S
Lacrosse 5 rocket 3.2 13:27:35 10° N 13:28:20 14° NNE 13:28:20 14° NNE
Cosmos 2098 Rocket 4.3 13:25:39 10° S 13:32:08 49° E 13:38:27 10° NNE
Cosmos 1656 4.1 13:28:07 10° S 13:33:32 42° ESE 13:35:00 35° E
Lacrosse 5 4.0 13:34:33 10° S 13:36:06 12° SSE 13:36:06 12° SSE
Cosmos 407 Rocket 3.3 13:31:26 10° N 13:36:33 72° ENE 13:41:43 10° SSE
Cosmos 1953 3.3 13:33:31 10° SSW 13:37:18 46° W 13:41:00 10° NNW
Cosmos 1455 2.3 13:34:16 10° SSW 13:37:50 66° W 13:41:23 10° N
H-II Stage 2 4.3 13:02:56 10° W 13:48:17 57° NNW 13:52:10 27° NE
Cosmos 1833 Rocket 2.6 13:44:58 10° NNW 13:50:37 86° ENE 13:55:55 12° SSE
USA 215 3.5 13:53:02 43° E 13:54:37 52° SE 14:00:58 10° SSW
Meteor 1-4 Rocket 4.3 13:57:07 10° NNW 13:58:34 23° NW 13:58:34 23° NW
Cosmos 1066 4.5 13:58:36 10° N 14:04:03 81° E 14:09:37 10° S
ADEOS Rocket 3.1 14:02:00 10° SSE 14:09:01 89° E 14:15:14 10° NNW
ASTRO E2 4.4 14:09:37 10° W 14:11:26 27° WNW 14:11:26 27° WNW
Meteor 2-5 Rocket 3.8 14:07:45 10° N 14:13:43 81° W 14:19:40 10° S
Cosmos 2251 Rocket 4.3 14:10:03 10° NW 14:15:13 50° WSW 14:20:30 10° S
Cosmos 2184 Rocket 4.5 14:09:15 10° NNW 14:15:30 61° W 14:21:53 10° S
Cosmos 2154 Rocket 4.1 14:10:59 10° N 14:17:12 75° W 14:23:33 10° S
USA 229 DEB 4.5 14:13:21 10° SW 14:19:12 41° WNW 14:23:07 18° N
USA 229 4.5 14:13:29 10° SW 14:19:21 41° WNW 14:23:10 19° N
Cosmos 1610 Rocket 4.4 14:14:37 10° N 14:21:01 89° W 14:27:30 10° S
Cosmos 44 4.5 14:24:39 10° SW 14:29:12 39° WNW 14:29:37 38° NW
Cosmos 1697 Rocket 4.3 14:25:10 10° S 14:27:24 24° S 14:27:24 24° S
Meteor 1-24 Rocket 4.5 14:28:46 10° NNW 14:34:32 52° W 14:40:09 10° S
ISS -0.3 14:32:41 10° W 14:33:13 12° WSW 14:33:13 12° WSW
Lacrosse 5 rocket 4.4 21:52:49 14° E 21:52:49 14° E 21:53:40 10° E
NOSS 3-2 (A) 4.2 21:58:46 72° S 21:58:46 72° S 22:06:07 10° SSE
CZ-4C R/B 4.3 22:11:32 24° SSW 22:11:32 24° SSW 22:15:07 10° S
Cosmos 1975 4.2 22:35:17 35° ENE 22:35:44 36° E 22:39:26 10° SSE
CENTAUR R/B 3.8 22:40:12 32° SW 22:40:12 32° SW 22:45:29 10° S
GEOS 3 Rocket 3.8 22:36:32 10° SE 22:41:49 70° ENE 22:43:14 48° N
Meteor 2-9 Rocket 4.2 22:43:55 66° SW 22:43:55 66° SW 22:49:21 10° S
Cosmos 1666 Rocket 4.3 22:41:53 21° NNE 22:44:37 52° E 22:48:53 10° SSE
Milstar 3 Cent rocket 4.2 22:40:02 24° NW 22:45:26 38° NNE 22:51:33 10° E
SL-16 R/B 3.4 22:39:37 10° S 22:43:31 34° SSW 22:43:31 34° SSW
IRS-P3 4.2 22:41:44 10° NNE 22:47:04 77° ESE 22:52:29 10° S
Cosmos 2228 Rocket 4.0 22:47:27 10° S 22:51:56 50° E 22:56:20 10° NNE
FengYun 1-2 T 4.1 22:51:26 10° N 22:56:56 81° WNW 23:02:31 10° SSW
Cosmos 2278 Rocket 3.7 22:57:45 10° NNE 23:02:52 36° ENE 23:08:01 10° SE
Cosmos 614 Rocket 3.9 23:03:33 55° WNW 23:03:33 55° WNW 23:08:19 10° N
Cosmos 1553 Rocket 3.9 22:58:25 10° N 23:04:31 90° ENE 23:10:41 10° S
Hubble Space Telescope 3.4 23:06:57 10° N 23:08:22 12° NNE 23:09:46 10° NE
NOSS 3-2 (C) 4.3 23:05:14 28° WNW 23:10:15 58° WSW 23:18:17 10° SSE
In-Cosmos 22 4.2 23:08:55 10° SSW 23:14:03 48° W 23:19:06 10° NNW
Nadezhda 2 Rocket 4.4 23:08:10 10° S 23:14:31 89° W 23:20:42 10° N
BREEZE-M DEB (TANK) 4.1 23:17:27 35° SW 23:17:27 35° SW 23:19:59 10° SSE
Cosmos 192 4.4 23:13:39 10° NNW 23:18:35 80° ENE 23:23:34 10° SSE
ARIANE 5 R/B 2.8 23:14:00 10° N 23:18:52 42° W 23:23:44 10° SSW
ARGOS 3.3 23:15:10 10° N 23:20:19 48° W 23:25:34 10° SSW
Cosmos 1633 Rocket 3.0 23:18:38 10° NNW 23:22:59 64° W 23:27:27 10° S
Lacrosse 5 rocket 1.9 23:27:50 35° W 23:28:40 39° WNW 23:32:44 10° NNE
Meteor 1-23 Rocket 4.4 23:23:19 10° SSW 23:28:59 53° W 23:34:35 10° NNW
Spot 4 Rocket 4.0 23:25:04 10° NNE 23:30:13 88° ESE 23:35:26 10° SSW
Cosmos 1269 Rocket 4.1 23:28:12 10° SSW 23:33:25 54° WNW 23:38:33 10° N
Cosmos 220 Rocket 4.0 23:30:19 14° SSW 23:33:47 49° WNW 23:37:48 10° N
OAO 3 Rocket 3.6 23:32:33 20° NW 23:35:38 54° NNE 23:40:13 10° E
Meteor 1-21 4.2 23:29:55 10° S 23:35:45 78° W 23:41:27 10° N
DELTA 2 R/B (1) 4.2 23:34:01 22° WSW 23:37:13 44° S 23:42:33 10° ESE
CZ-2D R/B 4.0 23:34:17 10° NNW 23:38:18 38° W 23:42:25 10° SSW
DMSP B5D2-2 4.2 23:38:36 10° S 23:43:43 50° WSW 23:48:45 10° NNW
PSLV R/B 3.4 23:41:13 10° N 23:45:19 68° WNW 23:49:30 10° SSW
SeaSat 1 2.6 23:43:07 10° N 23:47:54 51° WNW 23:52:44 10° SW
BREEZE M DEB (TANK) 4.3 23:51:01 10° SW 23:53:03 15° S 23:56:24 10° SE
SL-4 R/B 1.8 23:50:21 11° NW 23:54:04 83° SW 23:58:15 10° SE
